Weather History for Cordoba, Spain

Change the Weather History Date:

Monday, July 8, 2013

  Actual Average Record
Temperature  
Mean Temperature 84 °F -  
Max Temperature 104 °F - - ()
Min Temperature 65 °F - - ()
Cooling Degree Days 20    
Growing Degree Days 34 (Base 50)    
Moisture  
Dew Point 51 °F    
Average Humidity 31    
Maximum Humidity 68    
Minimum Humidity 8    
Precipitation  
Precipitation 0.00 in 0.01 in - ()
Sea Level Pressure  
Sea Level Pressure 30.03 in    
Wind  
Wind Speed 2 mph ()    
Max Wind Speed 12 mph    
Max Gust Speed -    
Visibility 17.5 miles    
Events      
T = Trace of Precipitation, MM = Missing Value Source: Averaged Metar Reports

Daily Weather History Graph

Daily Weather History Graph

Search for Another Location

Airport:

Trip Planner

Search our weather history database for the weather conditions in past years. The results will help you decide how hot, cold, wet, or windy it might be!

Date:

Astronomy

Jul. 08, 2013 Rise Set
Actual Time 7:04 AM CEST 9:44 PM CEST
Civil Twilight 6:33 AM CEST 10:14 PM CEST
Nautical Twilight 5:55 AM CEST 10:53 PM CEST
Astronomical Twilight 5:11 AM CEST 11:36 PM CEST
Moon 7:19 AM CEST (7/8) 9:39 PM CEST (7/8)
Length of Visible Light 15h 41m
Length of Day
14h 39m
New Moon, 0% of the Moon is Illuminated
Jul 8
New Moon
Jul 16
First Quarter
Jul 22
Full
Jul 29
Last Quarter
Aug 6
New

Hourly Weather History & Observations

Time (CEST) Temp. Heat Index Dew Point Humidity Pressure Visibility Wind Dir Wind Speed Gust Speed Precip Events Conditions
2:00 AM 74 °F - 53 °F 37% 30.08 in - West 2.3 mph - -  
7:00 AM 66.2 °F - 55.4 °F 68% 30.06 in - Calm Calm - N/A   Clear
8:00 AM 71 °F - 56 °F 50% 30.08 in 16 mi Calm Calm - -  
8:00 AM 69.8 °F - 55.4 °F 60% 30.06 in - Calm Calm - N/A   Clear
8:30 AM 73.4 °F - 53.6 °F 50% 30.09 in - Calm Calm - N/A   Clear
9:00 AM 75.2 °F - 53.6 °F 47% 30.09 in - Calm Calm - N/A   Clear
9:42 AM 78.8 °F - 55.4 °F 44% 30.09 in - Variable 1.2 mph - N/A   Clear
10:00 AM 78.8 °F - 51.8 °F 39% 30.09 in - Variable 1.2 mph - N/A   Clear
11:00 AM 82.4 °F 81.4 °F 53.6 °F 37% 30.09 in - South 3.5 mph - N/A   Clear
12:00 PM 86.0 °F - 51.8 °F 31% 30.09 in - South 1.2 mph - N/A   Clear
1:00 PM 89.6 °F - 51.8 °F 27% 30.06 in - South 1.2 mph - N/A   Clear
2:00 PM 97 °F - 48 °F 11% 30.04 in 19 mi SW 2.3 mph - -  
2:00 PM 93.2 °F - 50.0 °F 23% 30.04 in - SW 2.3 mph - N/A   Clear
3:00 PM 96.8 °F - 48.2 °F 19% 30.04 in - SSW 2.3 mph - N/A   Clear
4:00 PM 98.6 °F - 46.4 °F 17% 30.01 in - SSE 1.2 mph - N/A   Clear
5:00 PM 100.4 °F - 46.4 °F 16% 29.98 in - West 4.6 mph - N/A   Clear
6:00 PM 100.4 °F - 46.4 °F 16% 29.98 in - Variable 2.3 mph - N/A   Clear
7:00 PM 100.4 °F - 48.2 °F 17% 29.95 in - WSW 3.5 mph - N/A   Clear
8:00 PM 102 °F - 45 °F 8% 29.93 in 25 mi West 6.9 mph - -  
8:00 PM 98.6 °F - 48.2 °F 18% 29.95 in - West 6.9 mph - N/A   Clear
9:00 PM 93.2 °F - 48.2 °F 21% 29.95 in - SW 11.5 mph - N/A   Clear
10:00 PM 87.8 °F - 48.2 °F 25% 29.98 in - WSW 5.8 mph - N/A   Clear